Weather History for Macomb, IL

Change the Weather History Date:

Saturday, April 27, 2013

  Actual Average (KBRL) Record (KBRL)
Temperature  
Mean Temperature 52 °F 58 °F  
Max Temperature 60 °F 69 °F 87 °F (1956)
Min Temperature 43 °F 47 °F 30 °F (1953)
Degree Days  
Heating Degree Days 14 8  
Month to date heating degree days 334  
Since 1 July heating degree days 5440  
Cooling Degree Days 0 1  
Month to date cooling degree days 17  
Year to date cooling degree days 19  
Growing Degree Days 2 (Base 50)    
Moisture  
Dew Point 48 °F    
Average Humidity 84    
Maximum Humidity 96    
Minimum Humidity 56    
Precipitation  
Precipitation 0.12 in 0.15 in 1.12 in (2002)
Month to date precipitation 3.29  
Year to date precipitation 8.94  
Sea Level Pressure  
Sea Level Pressure 30.16 in    
Wind  
Wind Speed 6 mph (ESE)    
Max Wind Speed 15 mph    
Max Gust Speed -    
Visibility 8 miles    
Events Rain    
T = Trace of Precipitation, MM = Missing Value Source: NWS Daily Summary

Daily Weather History Graph

Daily Weather History Graph

Search for Another Location

Airport:

Trip Planner

Search our weather history database for the weather conditions in past years. The results will help you decide how hot, cold, wet, or windy it might be!

Date:

Astronomy

Apr. 27, 2013 Rise Set
Actual Time 6:06 AM CDT 7:54 PM CDT
Civil Twilight 5:37 AM CDT 8:23 PM CDT
Nautical Twilight 5:01 AM CDT 8:59 PM CDT
Astronomical Twilight 4:23 AM CDT 9:37 PM CDT
Moon 10:24 PM CDT (4/27) 7:24 AM CDT (4/27)
Length of Visible Light 14h 46m
Length of Day
13h 48m
Waning Gibbous, 95% of the Moon is Illuminated
Apr 27
Waning Gibbous
May 2
Last Quarter
May 9
New
May 17
First Quarter
May 24
Full

Hourly Weather History & Observations

Time (CDT) Temp. Windchill Dew Point Humidity Pressure Visibility Wind Dir Wind Speed Gust Speed Precip Events Conditions
12:15 AM 53.1 °F - 47.3 °F 81% 30.30 in 10.0 mi South 5.8 mph - N/A   Clear
12:35 AM 53.2 °F - 47.3 °F 80% 30.30 in 10.0 mi South 6.9 mph - N/A   Mostly Cloudy
12:55 AM 52.2 °F - 47.3 °F 83% 30.30 in 10.0 mi South 5.8 mph - N/A   Scattered Clouds
1:15 AM 51.6 °F - 46.9 °F 84% 30.29 in 10.0 mi South 4.6 mph - N/A   Clear
1:35 AM 51.1 °F - 46.9 °F 86% 30.29 in 10.0 mi Calm Calm - N/A   Clear
1:55 AM 51.3 °F - 47.3 °F 86% 30.28 in 10.0 mi SSE 3.5 mph - N/A   Clear
2:15 AM 49.3 °F - 45.9 °F 88% 30.28 in 10.0 mi South 4.6 mph - N/A   Clear
2:35 AM 49.3 °F - 46.6 °F 90% 30.27 in 10.0 mi Calm Calm - N/A   Clear
2:55 AM 48.4 °F - 45.7 °F 90% 30.27 in 10.0 mi South 3.5 mph - N/A   Clear
3:15 AM 48.7 °F - 46.4 °F 92% 30.27 in 10.0 mi SSE 3.5 mph - N/A   Clear
3:35 AM 48.2 °F - 45.5 °F 90% 30.26 in 7.0 mi SSE 3.5 mph - N/A   Clear
3:55 AM 47.5 °F - 45.5 °F 93% 30.26 in 7.0 mi SSE 3.5 mph - N/A   Clear
4:15 AM 47.8 °F - 45.7 °F 92% 30.25 in 7.0 mi SE 3.5 mph - N/A   Clear
4:35 AM 45.9 °F - 44.1 °F 93% 30.25 in 5.0 mi Calm Calm - N/A   Clear
4:55 AM 45.5 °F - 44.1 °F 95% 30.25 in 5.0 mi Calm Calm - N/A   Clear
5:15 AM 43.7 °F 40.3 °F 42.4 °F 95% 30.25 in 4.0 mi SSE 5.8 mph - N/A   Clear
6:35 AM 44.6 °F - 43.3 °F 95% 30.23 in 2.5 mi Calm Calm - N/A   Clear
6:55 AM 44.8 °F 41.6 °F 43.7 °F 96% 30.23 in 2.0 mi NE 5.8 mph - N/A   Clear
7:15 AM 46.4 °F 45.2 °F 45.3 °F 96% 30.24 in 2.5 mi NE 3.5 mph - N/A   Clear
7:35 AM 47.7 °F - 46.4 °F 95% 30.24 in 3.0 mi East 3.5 mph - N/A   Clear
7:55 AM 49.8 °F - 47.7 °F 92% 30.23 in 5.0 mi East 5.8 mph - N/A   Clear
8:15 AM 51.3 °F - 48.4 °F 90% 30.23 in 7.0 mi East 4.6 mph - N/A   Clear
8:35 AM 52.3 °F - 48.2 °F 86% 30.23 in 10.0 mi East 5.8 mph - N/A   Clear
8:55 AM 53.8 °F - 48.2 °F 81% 30.22 in 10.0 mi ESE 6.9 mph - N/A   Mostly Cloudy
9:15 AM 55.6 °F - 47.1 °F 73% 30.22 in 10.0 mi SE 8.1 mph - N/A   Scattered Clouds
9:35 AM 56.1 °F - 46.9 °F 71% 30.21 in 10.0 mi SSE 10.4 mph - N/A   Mostly Cloudy
9:55 AM 57.6 °F - 46.6 °F 67% 30.21 in 10.0 mi SSE 10.4 mph - N/A   Overcast
10:15 AM 57.2 °F - 45.9 °F 66% 30.21 in 10.0 mi SE 9.2 mph - N/A   Overcast
10:35 AM 57.2 °F - 45.7 °F 65% 30.21 in 10.0 mi SE 8.1 mph - N/A   Overcast
10:55 AM 57.2 °F - 45.9 °F 66% 30.21 in 10.0 mi ESE 6.9 mph - N/A   Overcast
11:15 AM 58.6 °F - 46.0 °F 63% 30.21 in 10.0 mi SE 9.2 mph - N/A   Overcast
11:35 AM 59.4 °F - 43.9 °F 57% 30.21 in 10.0 mi SE 9.2 mph - N/A   Overcast
11:55 AM 59.2 °F - 44.1 °F 57% 30.20 in 10.0 mi ESE 10.4 mph - N/A   Overcast
12:15 PM 60.1 °F - 44.4 °F 56% 30.19 in 10.0 mi ESE 12.7 mph - N/A   Overcast
12:35 PM 60.1 °F - 45.1 °F 58% 30.18 in 10.0 mi ESE 15.0 mph - N/A   Overcast
12:55 PM 59.9 °F - 45.1 °F 58% 30.17 in 10.0 mi SE 12.7 mph - N/A   Overcast
1:15 PM 59.4 °F - 45.7 °F 61% 30.17 in 10.0 mi SE 11.5 mph - N/A   Overcast
1:35 PM 59.2 °F - 47.7 °F 66% 30.16 in 10.0 mi SE 10.4 mph - N/A Rain Light Rain
1:55 PM 58.5 °F - 48.9 °F 71% 30.15 in 10.0 mi SE 11.5 mph - N/A Rain Light Rain
2:15 PM 57.7 °F - 50.9 °F 78% 30.14 in 10.0 mi SE 9.2 mph - N/A Rain Light Rain
2:35 PM 58.1 °F - 50.7 °F 76% 30.14 in 10.0 mi SSE 10.4 mph - N/A   Overcast
2:55 PM 57.7 °F - 49.8 °F 75% 30.13 in 10.0 mi SE 10.4 mph - N/A Rain Light Rain
3:15 PM 56.5 °F - 50.5 °F 80% 30.12 in 7.0 mi SE 10.4 mph - 0.01 in Rain Light Rain
3:35 PM 55.2 °F - 51.4 °F 87% 30.11 in 5.0 mi SE 4.6 mph - 0.03 in Rain Rain
3:55 PM 55.0 °F - 51.3 °F 87% 30.11 in 5.0 mi ESE 4.6 mph - 0.05 in Rain Light Rain
4:15 PM 55.2 °F - 51.3 °F 87% 30.11 in 5.0 mi ESE 4.6 mph - 0.02 in Rain Light Rain
4:35 PM 54.9 °F - 51.4 °F 88% 30.10 in 5.0 mi East 4.6 mph - 0.04 in Rain Light Rain
4:55 PM 55.0 °F - 51.8 °F 89% 30.10 in 4.0 mi East 6.9 mph - 0.04 in   Light Drizzle
5:15 PM 54.5 °F - 51.8 °F 91% 30.09 in 5.0 mi ENE 6.9 mph - 0.01 in Rain Light Rain
5:35 PM 54.7 °F - 51.6 °F 89% 30.08 in 7.0 mi ENE 3.5 mph - 0.01 in Rain Light Rain
5:55 PM 55.0 °F - 51.6 °F 88% 30.08 in 7.0 mi ENE 4.6 mph - 0.01 in   Light Drizzle
6:15 PM 55.2 °F - 51.8 °F 88% 30.07 in 7.0 mi NE 6.9 mph - N/A Rain Light Rain
6:35 PM 55.0 °F - 52.0 °F 89% 30.06 in 7.0 mi NE 5.8 mph - N/A   Overcast
6:55 PM 55.0 °F - 52.0 °F 89% 30.05 in 7.0 mi NNE 4.6 mph - N/A Rain Light Rain
7:15 PM 54.9 °F - 52.2 °F 91% 30.05 in 5.0 mi NNE 5.8 mph - 0.01 in Rain Rain
7:35 PM 54.7 °F - 52.2 °F 91% 30.05 in 5.0 mi NNE 4.6 mph - 0.02 in Rain Light Rain
7:55 PM 54.5 °F - 52.2 °F 92% 30.04 in 4.0 mi NNE 4.6 mph - 0.02 in Rain Light Rain
8:15 PM 54.1 °F - 52.0 °F 92% 30.03 in 7.0 mi North 4.6 mph - N/A   Overcast
8:35 PM 54.0 °F - 52.0 °F 93% 30.03 in 7.0 mi NNE 4.6 mph - N/A   Overcast
8:55 PM 54.0 °F - 52.2 °F 94% 30.03 in 5.0 mi North 4.6 mph - N/A   Overcast
9:15 PM 53.8 °F - 52.0 °F 94% 30.03 in 7.0 mi NE 4.6 mph - N/A   Overcast
9:35 PM 53.6 °F - 51.8 °F 94% 30.03 in 7.0 mi ENE 3.5 mph - N/A   Overcast
9:55 PM 53.6 °F - 51.8 °F 94% 30.03 in 7.0 mi Calm Calm - N/A   Overcast
10:15 PM 53.8 °F - 52.0 °F 94% 30.02 in 7.0 mi East 4.6 mph - N/A   Overcast
10:35 PM 54.0 °F - 52.0 °F 93% 30.02 in 7.0 mi East 4.6 mph - N/A   Overcast
10:55 PM 53.6 °F - 51.8 °F 94% 30.02 in 7.0 mi ENE 4.6 mph - N/A   Overcast
11:15 PM 54.0 °F - 52.2 °F 94% 30.01 in 7.0 mi East 3.5 mph - N/A   Overcast
11:35 PM 53.8 °F - 52.3 °F 95% 30.01 in 5.0 mi NE 3.5 mph - N/A   Overcast
11:55 PM 53.8 °F - 52.7 °F 96% 30.00 in 4.0 mi NE 3.5 mph - N/A   Overcast